HST 1 20580U 90037B 10066.57864224 +.00000570 +00000-0 +30822-4 0 05329 2 20580 028.4687 183.1574 0003395 198.8317 161.2293 15.00913799889472 ISS (ZARYA) 1 25544U 98067A 10066.17843750 .00014378 00000-0 10419-3 0 7188 2 25544 051.6477 034.3005 0007652 023.0080 154.7514 15.73697725647400 CXO 1 25867U 99040B 10068.58333333 -.00000183 +00000-0 +10000-3 0 04369 2 25867 066.6519 058.3027 8008682 275.2227 359.9148 00.37807070006015